Weather History for KIJX - March, 2014

Change the Weather History Date:

Thursday, March 27, 2014

  Actual Average (KSPI) Record (KSPI)
Temperature  
Mean Temperature 46 °F 46 °F  
Max Temperature 56 °F 57 °F 84 °F (1910)
Min Temperature 37 °F 36 °F 14 °F (1955)
Degree Days  
Heating Degree Days 18 19  
Month to date heating degree days 639  
Since 1 July heating degree days 4910  
Cooling Degree Days 0 0  
Month to date cooling degree days 0  
Year to date cooling degree days 0  
Moisture  
Dew Point 40 °F    
Average Humidity 75    
Maximum Humidity 87    
Minimum Humidity 63    
Precipitation  
Precipitation 0.38 in 0.09 in 4.60 in (1898)
Month to date precipitation 2.25  
Year to date precipitation 5.88  
Snow  
Snow 0.00 in 0.10 in 4.70 in (1934)
Month to date snowfall 2.4  
Since 1 July snowfall 20.5  
Snow Depth -    
Sea Level Pressure  
Sea Level Pressure 29.70 in    
Wind  
Wind Speed 17 mph (SSE)    
Max Wind Speed 25 mph    
Max Gust Speed 38 mph    
Visibility 9 miles    
Events Rain    
T = Trace of Precipitation, MM = Missing Value Source: NWS Daily Summary

Daily Weather History Graph

Daily Weather History Graph

Search for Another Location

Airport or City:

Trip Planner

Search our weather history database for the weather conditions in past years. The results will help you decide how hot, cold, wet, or windy it might be!

Date:

Astronomy

Mar. 27, 2014 Rise Set
Actual Time 6:53 AM CDT 7:20 PM CDT
Civil Twilight 6:26 AM CDT 7:47 PM CDT
Nautical Twilight 5:54 AM CDT 8:19 PM CDT
Astronomical Twilight 5:21 AM CDT 8:51 PM CDT
Moon 4:44 AM CDT (3/27) 4:08 PM CDT (3/27)
Length of Visible Light 13h 21m
Length of Day
12h 27m
Waning Crescent, 13% of the Moon is Illuminated
Mar 27
Waning Crescent
Mar 30
New
Apr 7
First Quarter
Apr 15
Full
Apr 22
Last Quarter

Hourly Weather History & Observations

Time (CDT) Temp. Windchill Dew Point Humidity Pressure Visibility Wind Dir Wind Speed Gust Speed Precip Events Conditions
12:15 AM 40.1 °F 31.6 °F 30.2 °F 68% 29.98 in 10.0 mi South 16.1 mph 23.0 mph N/A Rain Light Rain
12:35 AM 39.9 °F 32.5 °F 30.9 °F 70% 29.97 in 10.0 mi South 12.7 mph 20.7 mph N/A Rain Light Rain
12:55 AM 39.4 °F 31.8 °F 31.1 °F 72% 29.96 in 10.0 mi SSE 12.7 mph 19.6 mph 0.01 in Rain Light Rain
1:15 AM 39.6 °F 32.1 °F 30.9 °F 71% 29.95 in 10.0 mi South 12.7 mph 20.7 mph N/A   Light Drizzle
1:35 AM 39.2 °F 30.8 °F 31.3 °F 73% 29.94 in 10.0 mi SSE 15.0 mph - N/A Rain Light Rain
1:55 AM 38.7 °F 30.5 °F 32.0 °F 77% 29.93 in 7.0 mi SSE 13.8 mph 20.7 mph 0.02 in Rain Light Rain
2:15 AM 37.9 °F 30.0 °F 32.4 °F 80% 29.92 in 7.0 mi SSE 12.7 mph 20.7 mph 0.01 in Rain Light Rain
2:35 AM 37.4 °F 28.5 °F 32.9 °F 84% 29.91 in 7.0 mi SSE 15.0 mph 19.6 mph 0.03 in Rain Light Rain
2:55 AM 37.4 °F 28.9 °F 32.9 °F 84% 29.89 in 7.0 mi SSE 13.8 mph 21.9 mph 0.04 in Rain Light Rain
3:15 AM 37.4 °F 28.9 °F 33.3 °F 85% 29.88 in 7.0 mi SSE 13.8 mph 19.6 mph 0.01 in Rain Light Rain
3:35 AM 37.4 °F 28.2 °F 33.8 °F 87% 29.86 in 7.0 mi SSE 16.1 mph 24.2 mph 0.03 in Rain Light Rain
3:55 AM 37.8 °F 27.7 °F 34.2 °F 87% 29.84 in 7.0 mi SSE 19.6 mph 27.6 mph 0.05 in Rain Light Rain
4:15 AM 37.9 °F 27.6 °F 34.3 °F 87% 29.82 in 5.0 mi SSE 20.7 mph 26.5 mph 0.02 in Rain Light Rain
4:35 AM 37.9 °F 28.5 °F 34.0 °F 86% 29.81 in 10.0 mi SE 17.3 mph 23.0 mph 0.02 in Rain Light Rain
4:55 AM 38.5 °F 28.9 °F 33.1 °F 81% 29.80 in 10.0 mi SE 18.4 mph 23.0 mph 0.02 in   Overcast
5:15 AM 39.4 °F 31.1 °F 32.4 °F 76% 29.78 in 10.0 mi SSE 15.0 mph 31.1 mph N/A   Overcast
5:35 AM 40.1 °F 31.3 °F 32.0 °F 73% 29.78 in 10.0 mi SSE 17.3 mph 24.2 mph N/A   Overcast
5:55 AM 40.6 °F 31.4 °F 32.0 °F 71% 29.77 in 10.0 mi SE 19.6 mph 26.5 mph N/A   Overcast
6:15 AM 40.1 °F 31.6 °F 32.0 °F 73% 29.77 in 10.0 mi SSE 16.1 mph 26.5 mph 0.01 in Rain Light Rain
6:35 AM 40.6 °F 33.4 °F 32.0 °F 71% 29.77 in 10.0 mi SSE 12.7 mph 18.4 mph 0.01 in   Overcast
6:55 AM 41.2 °F 33.0 °F 32.0 °F 70% 29.77 in 10.0 mi SSE 16.1 mph 25.3 mph 0.01 in   Overcast
7:15 AM 41.9 °F 34.6 °F 32.2 °F 68% 29.77 in 10.0 mi SSE 13.8 mph 19.6 mph N/A   Overcast
7:35 AM 42.4 °F 34.7 °F 32.0 °F 67% 29.78 in 10.0 mi South 16.1 mph 23.0 mph N/A   Overcast
7:55 AM 40.6 °F 33.0 °F 34.2 °F 78% 29.79 in 5.0 mi South 13.8 mph 20.7 mph 0.04 in Rain Rain
8:15 AM 40.1 °F 31.3 °F 35.4 °F 83% 29.79 in 4.0 mi South 17.3 mph 24.2 mph 0.06 in Rain Heavy Rain
8:35 AM 40.5 °F 31.2 °F 35.6 °F 83% 29.78 in 10.0 mi SSE 19.6 mph 24.2 mph 0.09 in   Overcast
8:55 AM 40.3 °F 31.9 °F 36.0 °F 85% 29.77 in 5.0 mi SSE 16.1 mph 21.9 mph 0.13 in Rain Light Rain
9:15 AM 41.0 °F 32.8 °F 36.1 °F 83% 29.76 in 10.0 mi SSE 16.1 mph 21.9 mph N/A Rain Light Rain
9:35 AM 41.9 °F 35.0 °F 36.7 °F 82% 29.76 in 10.0 mi SSE 12.7 mph 21.9 mph N/A Rain Light Rain
9:55 AM 43.3 °F 36.1 °F 36.7 °F 77% 29.76 in 10.0 mi SSE 15.0 mph 20.7 mph N/A Rain Light Rain
10:15 AM 44.4 °F 36.9 °F 37.0 °F 75% 29.75 in 10.0 mi SSE 17.3 mph 27.6 mph N/A Rain Light Rain
10:35 AM 43.9 °F 36.2 °F 37.0 °F 77% 29.75 in 10.0 mi SSE 17.3 mph 25.3 mph N/A   Light Drizzle
10:55 AM 45.0 °F 38.2 °F 37.0 °F 74% 29.74 in 10.0 mi SSE 15.0 mph 21.9 mph N/A   Overcast
11:15 AM 45.9 °F 39.4 °F 37.4 °F 72% 29.72 in 10.0 mi SSE 15.0 mph 21.9 mph N/A   Overcast
11:35 AM 47.3 °F - 37.0 °F 68% 29.71 in 10.0 mi SSE 17.3 mph 25.3 mph N/A   Overcast
11:55 AM 47.5 °F - 37.6 °F 69% 29.70 in 10.0 mi SSE 17.3 mph 25.3 mph N/A   Overcast
12:15 PM 48.4 °F - 38.5 °F 69% 29.69 in 10.0 mi SSE 19.6 mph 24.2 mph N/A   Overcast
12:35 PM 50.9 °F - 39.7 °F 66% 29.68 in 10.0 mi SSE 18.4 mph 25.3 mph N/A   Mostly Cloudy
12:55 PM 52.3 °F - 41.0 °F 65% 29.66 in 10.0 mi SSE 20.7 mph 27.6 mph N/A   Mostly Cloudy
1:15 PM 54.0 °F - 42.4 °F 65% 29.65 in 10.0 mi South 21.9 mph 31.1 mph N/A   Mostly Cloudy
1:35 PM 54.5 °F - 42.8 °F 65% 29.64 in 10.0 mi SSE 16.1 mph 31.1 mph N/A   Overcast
1:55 PM 54.9 °F - 43.0 °F 64% 29.63 in 10.0 mi South 20.7 mph 29.9 mph N/A   Overcast
2:15 PM 55.4 °F - 43.0 °F 63% 29.62 in 10.0 mi SSE 25.3 mph 38.0 mph N/A   Overcast
2:35 PM 55.6 °F - 43.3 °F 63% 29.60 in 10.0 mi South 21.9 mph 33.4 mph N/A   Mostly Cloudy
2:55 PM 55.8 °F - 43.9 °F 64% 29.60 in 10.0 mi SSE 20.7 mph 34.5 mph N/A   Mostly Cloudy
3:15 PM 55.0 °F - 44.1 °F 67% 29.59 in 10.0 mi South 17.3 mph 27.6 mph N/A   Overcast
3:35 PM 54.5 °F - 44.1 °F 68% 29.58 in 10.0 mi SSE 17.3 mph 25.3 mph N/A   Overcast
3:55 PM 54.5 °F - 44.1 °F 68% 29.58 in 10.0 mi SSE 24.2 mph 31.1 mph N/A   Overcast
4:15 PM 54.5 °F - 44.1 °F 68% 29.57 in 10.0 mi South 18.4 mph 29.9 mph N/A   Overcast
4:35 PM 54.5 °F - 44.6 °F 69% 29.57 in 10.0 mi SSE 19.6 mph 27.6 mph N/A   Overcast
4:55 PM 54.0 °F - 44.6 °F 71% 29.57 in 10.0 mi South 18.4 mph 21.9 mph N/A   Overcast
5:15 PM 53.6 °F - 45.0 °F 73% 29.57 in 10.0 mi South 20.7 mph 27.6 mph N/A   Overcast
5:35 PM 53.6 °F - 45.5 °F 74% 29.55 in 10.0 mi SSE 18.4 mph 29.9 mph N/A   Overcast
5:55 PM 53.8 °F - 45.5 °F 74% 29.56 in 10.0 mi South 16.1 mph 25.3 mph N/A   Overcast
6:15 PM 54.0 °F - 45.7 °F 74% 29.55 in 10.0 mi South 18.4 mph 31.1 mph N/A   Overcast
6:35 PM 54.1 °F - 46.2 °F 75% 29.55 in 10.0 mi South 17.3 mph 27.6 mph N/A   Overcast
6:55 PM 52.7 °F - 47.5 °F 82% 29.56 in 5.0 mi South 16.1 mph 23.0 mph 0.04 in Rain Rain
7:15 PM 52.9 °F - 47.7 °F 82% 29.52 in 10.0 mi SSE 17.3 mph 23.0 mph N/A   Scattered Clouds
7:35 PM 53.4 °F - 47.8 °F 81% 29.51 in 10.0 mi SSE 18.4 mph 28.8 mph N/A   Clear
7:55 PM 53.8 °F - 48.6 °F 82% 29.51 in 10.0 mi South 17.3 mph 29.9 mph N/A   Clear
8:15 PM 54.7 °F - 48.7 °F 80% 29.53 in 10.0 mi South 18.4 mph 27.6 mph N/A   Scattered Clouds
8:35 PM 54.5 °F - 49.3 °F 83% 29.54 in 10.0 mi South 16.1 mph 29.9 mph 0.01 in Rain Light Rain
8:55 PM 55.0 °F - 50.0 °F 83% 29.52 in 10.0 mi South 20.7 mph 36.8 mph 0.02 in   Light Drizzle
9:15 PM 55.4 °F - 50.2 °F 83% 29.53 in 10.0 mi South 20.7 mph 28.8 mph N/A   Scattered Clouds
9:35 PM 55.4 °F - 50.2 °F 83% 29.53 in 10.0 mi South 21.9 mph 28.8 mph N/A   Clear
9:55 PM 55.6 °F - 50.5 °F 83% 29.54 in 10.0 mi South 21.9 mph 26.5 mph N/A   Clear
10:15 PM 56.5 °F - 51.1 °F 82% 29.55 in 10.0 mi SSW 24.2 mph 31.1 mph N/A   Clear
10:35 PM 56.3 °F - 51.3 °F 83% 29.56 in 10.0 mi SSW 18.4 mph 26.5 mph N/A   Mostly Cloudy
10:55 PM 56.5 °F - 51.4 °F 83% 29.57 in 10.0 mi SW 19.6 mph 25.3 mph N/A   Overcast
11:15 PM 55.8 °F - 49.8 °F 80% 29.59 in 10.0 mi West 20.7 mph 26.5 mph N/A   Overcast
11:35 PM 51.1 °F - 42.8 °F 73% 29.62 in 10.0 mi West 20.7 mph 24.2 mph N/A   Scattered Clouds
11:55 PM 48.6 °F - 40.6 °F 74% 29.63 in 10.0 mi West 23.0 mph 29.9 mph N/A   Clear